FW7729 Weather Reports


Display with metric or nautical units.
time (UTC)temp
F
wind
direction
speed
MPH
gust
MPH
rain 1hr
in
rain 24hr
in
rain mn
in
humidity
%
barometer
mb
20260903105130 71 146 0.0 0.0 0.00 0.05 0.00 10 1016.7
20260903104556 71 147 0.0 0.0 0.00 0.05 0.00 10 1016.6
20260903101822 71 147 0.0 0.0 0.00 0.05 0.00 10 1015.8
20260903101248 71 147 0.0 0.0 0.00 0.05 0.00 10 1015.8
20260903100714 71 147 0.0 0.0 0.00 0.05 0.00 10 1015.8
20260903095610 71 147 0.0 0.0 0.00 0.05 0.00 10 1015.7
20260903094506 71 147 0.0 0.0 0.00 0.05 0.00 10 1015.8
20260903093932 71 147 0.0 0.0 0.00 0.05 0.00 10 1015.8
20260903092828 71 147 0.0 0.0 0.00 0.05 0.00 10 1016.0
20260903092254 71 147 0.0 0.0 0.00 0.05 0.00 10 1016.0
20260903091720 71 147 0.0 0.0 0.00 0.05 0.00 10 1016.0
20260903090616 71 147 0.0 0.0 0.00 0.05 0.00 10 1015.9
20260903090042 71 147 0.0 0.0 0.00 0.05 0.00 10 1015.9
20260903085507 71 147 0.0 0.0 0.00 0.05 0.00 10 1015.7
20260903084403 71 147 0.0 0.0 0.00 0.05 0.00 10 1015.6
20260903083830 71 147 0.0 0.0 0.00 0.05 0.00 10 1015.7
20260903083255 71 147 0.0 0.0 0.00 0.05 0.00 10 1015.4
20260903082721 71 147 0.0 0.0 0.00 0.05 0.00 10 1015.5
20260903081617 71 147 0.0 0.0 0.00 0.05 0.00 10 1015.8
20260903080513 71 147 0.0 0.0 0.00 0.05 0.00 10 1015.7
20260903075939 71 147 0.0 0.0 0.00 0.05 0.00 10 1015.7
20260903075405 71 147 0.0 0.0 0.00 0.05 0.00 10 1015.7
20260903074301 71 147 0.0 0.0 0.00 0.05 0.00 10 1015.8
20260903073727 71 147 0.0 0.0 0.00 0.05 0.00 10 1015.8
20260903073153 71 147 1.0 0.0 0.00 0.05 0.00 10 1015.8
20260903072619 71 147 0.0 0.0 0.00 0.05 0.00 10 1015.7
20260903070945 71 147 0.0 0.0 0.00 0.05 0.00 10 1015.5
20260903065311 71 147 1.0 0.0 0.00 0.05 0.00 10 1015.5
20260903064737 71 143 0.0 0.0 0.00 0.05 0.00 10 1015.6
20260903063633 71 143 0.0 0.0 0.00 0.05 0.00 10 1015.7
20260903063059 71 143 0.0 0.0 0.00 0.05 0.00 10 1015.7
20260903061955 71 143 0.0 0.0 0.00 0.05 0.00 10 1015.5
20260903060851 72 143 0.0 0.0 0.00 0.05 0.00 10 1015.8
20260903060316 72 143 1.0 0.0 0.00 0.05 0.00 10 1015.7
20260903054642 72 110 0.0 0.0 0.00 0.05 0.00 10 1015.9
20260903054108 72 109 0.0 0.0 0.00 0.05 0.00 10 1016.0
20260903053534 72 104 1.0 0.0 0.00 0.05 0.00 10 1016.1
20260903053000 72 104 0.0 0.0 0.00 0.05 0.00 10 1016.0
20260903051856 72 104 1.0 0.0 0.00 0.05 0.00 10 1016.0
20260903051322 72 104 0.0 0.0 0.00 0.05 0.00 10 1016.2
20260903050748 72 104 0.0 0.0 0.00 0.05 0.00 10 1016.1
20260903050214 72 103 0.0 0.0 0.00 0.05 0.00 10 1016.2
20260903045640 72 104 0.0 0.0 0.00 0.05 0.00 10 1016.4
20260903045106 72 104 0.0 0.0 0.00 0.05 0.00 10 1016.5
20260903044532 72 104 0.0 0.0 0.00 0.05 0.00 10 1016.3
20260903043427 72 104 0.0 0.0 0.00 0.05 0.00 10 1016.5
20260903042853 72 104 0.0 0.0 0.00 0.05 0.05 10 1016.5
20260903042318 72 104 0.0 0.0 0.00 0.05 0.05 10 1016.5
20260903041744 72 104 0.0 0.0 0.00 0.05 0.05 10 1016.6
20260903041210 72 104 0.0 0.0 0.00 0.05 0.05 10 1016.6
20260903040636 72 104 0.0 0.0 0.00 0.05 0.05 10 1016.8
20260903035528 72 104 0.0 0.0 0.00 0.05 0.05 10 1016.6
20260903034423 72 104 0.0 0.0 0.00 0.05 0.05 10 1016.5
20260903033849 72 104 0.0 0.0 0.00 0.05 0.05 10 1016.5
20260903033315 72 104 0.0 0.0 0.00 0.05 0.05 10 1016.5
20260903032211 72 104 0.0 0.0 0.00 0.05 0.05 10 1016.8
20260903031637 72 104 0.0 0.0 0.00 0.05 0.05 10 1016.8
20260903031103 72 104 0.0 0.0 0.00 0.05 0.05 10 1016.7
20260903030529 72 104 0.0 0.0 0.00 0.05 0.05 10 1016.6
20260903025955 72 104 0.0 0.0 0.00 0.05 0.05 10 1016.6
20260903025421 72 104 0.0 0.0 0.00 0.05 0.05 10 1016.6
20260903024847 72 104 0.0 0.0 0.00 0.05 0.05 10 1016.6
20260903024313 72 104 0.0 0.0 0.00 0.05 0.05 10 1016.6
20260903022639 72 104 0.0 0.0 0.00 0.05 0.05 10 1016.3
20260903022104 72 104 0.0 0.0 0.00 0.05 0.05 10 1016.2
20260903021531 72 104 0.0 0.0 0.00 0.05 0.05 10 1016.2
20260903020956 72 104 0.0 0.0 0.00 0.05 0.05 10 1016.1
20260903015852 72 104 0.0 0.0 0.00 0.05 0.05 10 1016.0
20260903015319 72 104 0.0 0.0 0.00 0.05 0.05 10 1015.9
20260903014744 72 104 0.0 0.0 0.00 0.05 0.05 10 1015.9
20260903014210 72 104 0.0 0.0 0.00 0.05 0.05 10 1016.0
20260903013636 72 104 0.0 0.0 0.00 0.05 0.05 10 1016.1
20260903013102 72 104 0.0 0.0 0.00 0.05 0.05 10 1016.2
20260903012528 72 103 0.0 0.0 0.00 0.05 0.05 10 1016.3
20260903011424 72 104 0.0 0.0 0.00 0.05 0.05 10 1016.4
20260903010320 72 104 0.0 0.0 0.00 0.05 0.05 10 1016.5
20260903005746 72 104 0.0 0.0 0.00 0.05 0.05 10 1016.5
20260903005212 73 104 0.0 0.0 0.00 0.05 0.05 10 1016.4
20260903004638 73 104 0.0 0.0 0.00 0.05 0.05 10 1016.5
20260903003534 73 104 0.0 0.0 0.00 0.05 0.05 10 1016.4
20260903003000 73 104 0.0 0.0 0.00 0.05 0.05 10 1016.1
20260903002426 73 104 0.0 0.0 0.00 0.05 0.05 10 1016.3
20260903001322 73 104 0.0 0.0 0.00 0.05 0.05 10 1016.3
20260903000748 73 104 0.0 0.0 0.00 0.05 0.05 10 1016.5
20260902235643 73 104 0.0 0.0 0.00 0.05 0.05 10 1016.5
20260902235109 73 104 0.0 0.0 0.00 0.05 0.05 10 1016.5
20260902234535 74 104 0.0 0.0 0.00 0.05 0.05 10 1016.3
20260902234001 74 104 0.0 0.0 0.00 0.05 0.05 10 1016.4
20260902231756 74 104 0.0 0.0 0.00 0.05 0.05 10 1016.4
20260902231222 74 104 0.0 0.0 0.00 0.05 0.05 10 1016.6
20260902230118 74 104 0.0 0.0 0.00 0.05 0.05 10 1016.6
20260902225544 74 104 0.0 0.0 0.00 0.05 0.05 10 1016.5
20260902224440 74 104 0.0 0.0 0.00 0.05 0.05 10 1016.6
20260902223906 74 104 0.0 0.0 0.00 0.05 0.05 10 1016.8
20260902223332 74 104 0.0 0.0 0.00 0.05 0.05 10 1016.7
20260902222228 74 104 0.0 0.0 0.00 0.05 0.05 10 1016.7
20260902220554 74 104 0.0 0.0 0.00 0.05 0.05 10 1016.6
20260902215450 74 104 0.0 0.0 0.00 0.05 0.05 10 1016.8
20260902214916 74 104 0.0 0.0 0.00 0.05 0.05 10 1016.8
20260902214342 74 104 0.0 0.0 0.00 0.05 0.05 10 1017.1
20260902213808 74 104 0.0 0.0 0.00 0.05 0.05 10 1017.3
20260902213234 74 104 0.0 0.0 0.00 0.05 0.05 10 1017.2
20260902212130 74 104 0.0 0.0 0.00 0.05 0.05 10 1017.3
20260902211026 73 104 0.0 0.0 0.00 0.05 0.05 10 1017.0
20260902210452 73 104 0.0 0.0 0.00 0.05 0.05 10 1016.9
20260902205918 73 104 0.0 0.0 0.00 0.05 0.05 10 1016.8
20260902204814 73 104 0.0 0.0 0.00 0.05 0.05 10 1016.8
20260902204239 73 104 0.0 0.0 0.00 0.05 0.05 10 1016.9
20260902203706 73 104 0.0 0.0 0.00 0.05 0.05 10 1016.9
20260902203131 73 104 0.0 0.0 0.00 0.05 0.05 10 1016.9
20260902201457 73 104 0.0 0.0 0.00 0.05 0.05 10 1017.1
20260902200923 73 104 0.0 0.0 0.00 0.05 0.05 10 1017.1
20260902200349 73 104 0.0 0.0 0.00 0.05 0.05 10 1017.2
20260902193045 73 97 0.0 0.0 0.00 0.05 0.05 10 1016.9
20260902191941 73 97 0.0 0.0 0.00 0.05 0.05 10 1017.1
20260902191407 73 97 0.0 0.0 0.02 0.05 0.05 10 1017.0
20260902190303 73 97 0.0 0.0 0.05 0.05 0.05 10 1017.2
20260902185729 74 140 1.0 0.0 0.05 0.05 0.05 10 1016.9
20260902185155 74 68 0.0 0.0 0.05 0.05 0.05 10 1017.3
20260902182951 75 18 1.0 0.0 0.05 0.05 0.05 10 1017.7
20260902180747 84 131 3.0 1.0 0.00 0.00 0.00 79 1018.3
20260902180212 87 287 4.0 1.0 0.00 0.00 0.00 77 1018.1
20260902175638 88 100 1.0 0.0 0.00 0.00 0.00 80 1017.6
20260902175104 88 129 1.0 0.0 0.00 0.00 0.00 79 1017.7
20260902174530 88 101 1.0 0.0 0.00 0.00 0.00 80 1017.9
20260902173956 89 46 2.0 0.0 0.00 0.00 0.00 79 1017.8
20260902173422 89 94 0.0 0.0 0.00 0.00 0.00 79 1017.8
20260902172848 89 62 0.0 0.0 0.00 0.00 0.00 80 1017.8
20260902172314 89 228 0.0 0.0 0.00 0.00 0.00 79 1017.8
20260902171740 89 132 1.0 0.0 0.00 0.00 0.00 78 1017.7
20260902171206 90 27 0.0 0.0 0.00 0.00 0.00 77 1017.6
20260902165528 90 87 0.0 0.0 0.00 0.00 0.00 78 1017.3
20260902164954 90 87 0.0 0.0 0.00 0.00 0.00 79 1017.4
20260902164420 89 85 0.0 0.0 0.00 0.00 0.00 80 1017.5
20260902162745 88 83 1.0 0.0 0.00 0.00 0.00 79 1017.6
20260902161641 87 58 0.0 0.0 0.00 0.00 0.00 82 1017.5
20260902161107 87 58 0.0 0.0 0.00 0.00 0.00 82 1017.5
20260902160533 87 58 0.0 0.0 0.00 0.00 0.00 81 1017.4
20260902155959 87 58 1.0 0.0 0.00 0.00 0.00 81 1017.4
20260902155425 87 58 1.0 0.0 0.00 0.00 0.00 80 1017.5
20260902154851 87 49 0.0 0.0 0.00 0.00 0.00 82 1017.3
20260902154317 87 48 0.0 0.0 0.00 0.00 0.00 81 1017.3
20260902153213 86 73 0.0 0.0 0.00 0.00 0.00 83 1017.4
20260902152639 86 73 1.0 0.0 0.00 0.00 0.00 82 1017.4
20260902151535 85 99 0.0 0.0 0.00 0.00 0.00 82 1017.4
20260902145901 84 179 0.0 0.0 0.00 0.00 0.00 86 1017.3
20260902144757 83 180 1.0 0.0 0.00 0.00 0.00 87 1017.3
20260902144223 83 170 0.0 0.0 0.00 0.00 0.00 88 1017.3
20260902143649 83 62 0.0 0.0 0.00 0.00 0.00 89 1017.2
20260902142545 82 119 1.0 0.0 0.00 0.00 0.00 88 1017.3
20260902141440 82 41 0.0 0.0 0.00 0.00 0.00 90 1017.4
20260902140336 81 176 0.0 0.0 0.00 0.00 0.00 91 1017.5
20260902134702 80 169 0.0 0.0 0.00 0.00 0.00 93 1017.3
20260902134128 80 168 0.0 0.0 0.00 0.00 0.00 93 1017.3
20260902133554 80 50 0.0 0.0 0.00 0.00 0.00 94 1017.4
20260902133020 79 44 0.0 0.0 0.00 0.00 0.00 94 1017.4
20260902132446 79 237 0.0 0.0 0.00 0.00 0.00 96 1017.4
20260902130812 77 236 0.0 0.0 0.00 0.00 0.00 98 1017.2
20260902130238 76 236 0.0 0.0 0.00 0.00 0.00 99 1017.2
20260902125704 76 237 0.0 0.0 0.00 0.00 0.00 10 1017.1
20260902125130 75 237 0.0 0.0 0.00 0.00 0.00 10 1017.2
20260902124556 75 237 0.0 0.0 0.00 0.00 0.00 10 1017.2
20260902124022 74 237 0.0 0.0 0.00 0.00 0.00 10 1017.1
20260902123448 74 237 0.0 0.0 0.00 0.00 0.00 10 1017.0
20260902122344 73 237 0.0 0.0 0.00 0.00 0.00 10 1017.0
20260902121240 73 237 0.0 0.0 0.00 0.00 0.00 10 1017.1
20260902120136 73 237 0.0 0.0 0.00 0.00 0.00 10 1017.1
20260902115601 72 237 0.0 0.0 0.00 0.00 0.00 10 1017.1
20260902115027 72 237 0.0 0.0 0.00 0.00 0.00 10 1016.9
20260902113923 72 237 0.0 0.0 0.00 0.00 0.00 10 1016.8
20260902112819 72 236 0.0 0.0 0.00 0.00 0.00 10 1016.7
20260902112245 72 236 0.0 0.0 0.00 0.00 0.00 10 1016.7
20260902111711 72 236 0.0 0.0 0.00 0.00 0.00 10 1016.9
20260902111137 72 236 0.0 0.0 0.00 0.00 0.00 10 1016.8
20260902110603 72 236 0.0 0.0 0.00 0.00 0.00 10 1016.8